{"data":{"norad_id":48067,"epoch":"2026-09-19T22:07:42.033792Z","epoch_age_seconds":68181,"freshness":"FRESH","line1":"1 48067U 21025AB  26262.92201428 -.00000040  00000+0 -14480-3 0  9996","line2":"2 48067  87.8921 301.3753 0002142  81.3317 278.8054 13.13468964265985","mean_motion":13.13468964,"eccentricity":0.0002142,"inclination_deg":87.8921,"raan_deg":301.3753,"arg_perigee_deg":81.3317,"mean_anomaly_deg":278.8054,"bstar":-0.0001448,"rev_number":26598,"period_min":109.63334798674,"perigee_km":1208.1440603283,"apogee_km":1211.3947194257,"semimajor_km":7587.906389877,"source":"CELESTRAK","updated_at":"2026-09-20T09:00:44.589315Z"}}